Address 0xb0836faea133cc3ee8bb6ed1c9505f90e3aa5b4c

 
 
Txn Hash
Block
From
To
Value [Txn Fee]
0xf6b8c8e6f0ca5a13389cfe89c643edaba525a8d4b59585866e004d97cb2d343790948652021-07-12 15:07:1815 days 13 hrs ago0xb0836faea133cc3ee8bb6ed1c9505f90e3aa5b4cOUT Disperse.app0 BNB0.013831545
0xa2c9c8d4a77aa5f4fe56552792b9cd82a31adc04667eeabfb36a5dbe15dca55782374152021-06-12 16:17:1445 days 12 hrs ago0xb0836faea133cc3ee8bb6ed1c9505f90e3aa5b4cOUT Disperse.app0 BNB0.007870525
0x439bdc5c2124e6a94ff17d17a01daaaf75d588a19ca9d34bd0aae858c8e3697382361542021-06-12 15:14:1145 days 13 hrs ago0xb0836faea133cc3ee8bb6ed1c9505f90e3aa5b4cOUT Disperse.app0 BNB0.00557146
0x4bc058b412a59d6c71aca6a82d33a6ef6158a0945e58bd1c0430bb925a0a7ce682360532021-06-12 15:09:0845 days 13 hrs ago0xb0836faea133cc3ee8bb6ed1c9505f90e3aa5b4cOUT Disperse.app0 BNB0.118741835
0x0a7948ee584f29188d9d6a2347f6d099ad3f6ed0051b4081264a240b122c82c674682522021-05-16 20:02:2072 days 8 hrs ago0xb0836faea133cc3ee8bb6ed1c9505f90e3aa5b4cOUT 0xfcbfd9563c674459589d50186c0ee674be212a190 BNB0.00099889
0x30aca06ff18f521d15880db1da38b40a9f95a385936262e43abddb04a8303cb474682502021-05-16 20:02:1472 days 8 hrs ago0xb0836faea133cc3ee8bb6ed1c9505f90e3aa5b4cOUT 0xc315c32070c638c827aed14e94413bb9ce62280e0 BNB0.00107389
0x556abcbd007eb485785ace6a11c549f84987b9e970c7f8899f369ec828bf1ac774682432021-05-16 20:01:5372 days 8 hrs ago0xb0836faea133cc3ee8bb6ed1c9505f90e3aa5b4cOUT 0x8d2ec0d18a32ea693066abee3cac1495e6ab40f40 BNB0.00107389
0xcfbae63ad5c2c1b3af0258c6973a8fde2b578056a747dc0ab6086182ef8b08f674667982021-05-16 18:49:3072 days 10 hrs ago0xb0836faea133cc3ee8bb6ed1c9505f90e3aa5b4cOUT 0x3051cfb958dcd408fba70256073adba943fdf5520 BNB0.000198195
0x5a681f54f9c4e3a6e23ccd2802eb12b40e259825581dc6a275b32dd4b39e7d6774614732021-05-16 14:16:2472 days 14 hrs ago0xb0836faea133cc3ee8bb6ed1c9505f90e3aa5b4cOUT 0x3ce80ea8097bb4b0e032b341e85c75bc75ee46b20 BNB0.00099889
0xba31cdf7ee370a108d4c20f0043f2126b5a81dc33ee5aa77a80daea575d0217a74355292021-05-15 16:26:1373 days 12 hrs ago0xb0836faea133cc3ee8bb6ed1c9505f90e3aa5b4cOUT Disperse.app0 BNB0.000552125
0x142abd00aa5708dd8d051712dbca5e81796fba32f738a95e4584c2137983a90e74315652021-05-15 13:06:0473 days 15 hrs ago0xb0836faea133cc3ee8bb6ed1c9505f90e3aa5b4cOUT 0xfcbfd9563c674459589d50186c0ee674be212a190 BNB0.001131795
0xc216af9b15d287162f5af8028106a9086ed41642b9798f268ff3b0057ebacef874313102021-05-15 12:52:4273 days 16 hrs ago0xb0836faea133cc3ee8bb6ed1c9505f90e3aa5b4cOUT 0x3ce80ea8097bb4b0e032b341e85c75bc75ee46b20 BNB0.00113268
0x4382fd72c51bd733807358b2deb24208c1dac1db1e66b611dae05d0ffb92395974310342021-05-15 12:36:2473 days 16 hrs ago0xb0836faea133cc3ee8bb6ed1c9505f90e3aa5b4cOUT 0x3ce80ea8097bb4b0e032b341e85c75bc75ee46b20 BNB0.00052417
0x7e0d50b53deeb60bd812a31bf0569c540c5a1479328a4668b99dba68f25d3b5374310062021-05-15 12:35:0073 days 16 hrs ago0xb0836faea133cc3ee8bb6ed1c9505f90e3aa5b4cOUT 0x3ce80ea8097bb4b0e032b341e85c75bc75ee46b20 BNB0.00113268
0x8ddf465f2dd2d2e1105c77eb03cf73f3a29896c19cb36cc359d602f38400903a74309772021-05-15 12:33:3373 days 16 hrs ago0xb0836faea133cc3ee8bb6ed1c9505f90e3aa5b4cOUT 0x6479f12e03e20b4f5d7ba82a0a572136bf8cef470 BNB0.00023024
0xe461f0d073d0db62af1f9046a000a933fee986cf3a3346ecba1d8c39aedd7c0274309432021-05-15 12:31:5173 days 16 hrs ago0xb0836faea133cc3ee8bb6ed1c9505f90e3aa5b4cOUT 0x6479f12e03e20b4f5d7ba82a0a572136bf8cef470 BNB0.000604795
0xfba2080d90dc84c82fffc537f6e92f6ec23544671b8318a711c7d3425b6017f074034342021-05-14 12:55:5674 days 16 hrs ago0xb0836faea133cc3ee8bb6ed1c9505f90e3aa5b4cOUT 0x3051cfb958dcd408fba70256073adba943fdf5520 BNB0.000273135
0x345cf158198546438f618dced0c2d04a99e0a6da6e16e7ad3698377bf1d287b574033882021-05-14 12:53:3874 days 16 hrs ago0xb0836faea133cc3ee8bb6ed1c9505f90e3aa5b4cOUT PancakeSwap V2: Cake-FOC0 BNB0.000255735
0x50109bebce92bc12d38f61cb7b8b768fff334914bba67ce4ae80a65bd5d308de74033822021-05-14 12:53:2074 days 16 hrs ago0xb0836faea133cc3ee8bb6ed1c9505f90e3aa5b4cOUT PancakeSwap V2: FOC 100 BNB0.000255675
0xe54a0d0fc7a2350f2f167caf7905f80f5e0863160850ad926429fe45364e1bcf73918592021-05-14 3:11:0475 days 1 hr ago0xb0836faea133cc3ee8bb6ed1c9505f90e3aa5b4cOUT 0xfcbfd9563c674459589d50186c0ee674be212a190 BNB0.001217645
0xf2d5ba2a3878e720dd751eacb35a10178d561d1d0dd9e1f6c60f0e6d233a290f73918362021-05-14 3:09:5575 days 1 hr ago0xb0836faea133cc3ee8bb6ed1c9505f90e3aa5b4cOUT PancakeSwap V2: FOC-BUSD-T0 BNB0.00022113
0xbfb94740c46efe67db9e58b11c3821f07cfff78252383502dbdb48e22368761d73918172021-05-14 3:08:5875 days 1 hr ago0xb0836faea133cc3ee8bb6ed1c9505f90e3aa5b4cOUT PancakeSwap: Router v20 BNB0.00093464
0x81f98f8395c89000ad1791ccb8d17929aeccc285543f913051f9549240e0860a73918112021-05-14 3:08:4075 days 1 hr ago0xb0836faea133cc3ee8bb6ed1c9505f90e3aa5b4cOUT BUSD-T Stablecoin0 BNB0.00022203
0x3170ca1b5075495f174cb7e80f19b0a58c33988762c41029e82cb0f59611354073918022021-05-14 3:08:1375 days 1 hr ago0xb0836faea133cc3ee8bb6ed1c9505f90e3aa5b4cOUT PancakeSwap: Router v20.01 BNB0.00061128
0xcd4fb9e64c068aca7b121427e3511c42e5e49909704a02a4d2759a4f96d02e2773913922021-05-14 2:47:4375 days 2 hrs ago0xb0836faea133cc3ee8bb6ed1c9505f90e3aa5b4cOUT 0x3ce80ea8097bb4b0e032b341e85c75bc75ee46b20 BNB0.00079193
[ Download CSV Export 
Latest 1 internal transaction
Parent Txn Hash Block From To Value
0xf35335ef39d7ed894b3e9155a555a2dd0160c73e37ad52acb973901cdde8f8e173842282021-05-13 20:45:4975 days 8 hrs ago PancakeSwap: Router v20xb0836faea133cc3ee8bb6ed1c9505f90e3aa5b4c1 wei
[ Download CSV Export 
Loading

Contract Name:
0 BNB

Compiler Version
0

Optimization Enabled:
0 BNB

Other Settings:
-NA-
Block Transaction Gas Used Reward
Age Block Fee Address BC Fee Address Voting Power Jailed Incoming
Block Uncle Number Difficulty Gas Used Reward
Loading
Loading
Make sure to use the "Vote Down" button for any spammy posts, and the "Vote Up" for interesting conversations.